Change the Weather History Date:

Thursday, April 11, 2013

  Actual Average Record
Temperature  
Mean Temperature 54 °F -  
Max Temperature 62 °F 54 °F 66 °F (2014)
Min Temperature 46 °F 35 °F 17 °F (2007)
Degree Days  
Heating Degree Days 11    
Growing Degree Days 4 (Base 50)    
Moisture  
Dew Point 46 °F    
Average Humidity 84    
Maximum Humidity 100    
Minimum Humidity 59    
Precipitation  
Precipitation 0.13 in - - ()
Sea Level Pressure  
Sea Level Pressure 29.95 in    
Wind  
Wind Speed 5 mph (NE)    
Max Wind Speed 15 mph    
Max Gust Speed 23 mph    
Visibility 7 miles    
Events Rain    
Averages and records for this station are not official NWS values.
T = Trace of Precipitation, MM = Missing Value Source: NWS Daily Summary

Daily Weather History Graph

Daily Weather History Graph

Search for Another Location

Airport or City:

Trip Planner

Search our weather history database for the weather conditions in past years. The results will help you decide how hot, cold, wet, or windy it might be!

Date:

Astronomy

Apr. 11, 2013 Rise Set
Actual Time 6:17 AM EDT 7:26 PM EDT
Civil Twilight 5:49 AM EDT 7:54 PM EDT
Nautical Twilight 5:15 AM EDT 8:28 PM EDT
Astronomical Twilight 4:40 AM EDT 9:03 PM EDT
Moon 6:46 AM EDT (4/11) 8:58 PM EDT (4/11)
Length of Visible Light 14h 05m
Length of Day
13h 08m
New Moon, 2% of the Moon is Illuminated
Apr 11
New Moon
Apr 18
First Quarter
Apr 25
Full
May 2
Last Quarter
May 9
New

Hourly Weather History & Observations

Time (EDT) Temp. Windchill Dew Point Humidity Pressure Visibility Wind Dir Wind Speed Gust Speed Precip Events Conditions
12:53 AM 51.1 °F - 48.9 °F 92% 29.86 in 5.0 mi Calm Calm - 0.12 in Rain Light Rain
1:17 AM 51.8 °F - 48.2 °F 88% 29.83 in 5.0 mi South 3.5 mph - 0.01 in   Mostly Cloudy
1:53 AM 51.1 °F - 48.9 °F 92% 29.84 in 6.0 mi SSW 3.5 mph - 0.01 in Rain Light Rain
2:22 AM 51.8 °F - 50.0 °F 94% 29.84 in 7.0 mi NW 4.6 mph - 0.00 in   Overcast
2:53 AM 52.0 °F - 50.0 °F 93% 29.82 in 5.0 mi Calm Calm - 0.00 in   Overcast
3:53 AM 52.0 °F - 50.0 °F 93% 29.82 in 3.0 mi North 5.8 mph - N/A   Overcast
4:09 AM 51.8 °F - 48.2 °F 88% 29.82 in 2.5 mi North 8.1 mph - N/A   Overcast
4:23 AM 50.0 °F - 48.2 °F 94% 29.83 in 1.2 mi North 9.2 mph - N/A   Overcast
4:53 AM 48.9 °F - 46.9 °F 93% 29.86 in 1.0 mi North 4.6 mph - N/A   Overcast
5:00 AM 48.2 °F - 46.4 °F 93% 29.85 in 0.8 mi North 4.6 mph - N/A   Mist
5:25 AM 48.2 °F - 48.2 °F 100% 29.87 in 1.2 mi Calm Calm - N/A   Overcast
5:53 AM 48.9 °F - 48.0 °F 97% 29.89 in 1.5 mi NNW 4.6 mph - N/A   Overcast
6:09 AM 48.2 °F - 46.4 °F 93% 29.90 in 2.0 mi North 3.5 mph - N/A   Overcast
6:19 AM 48.2 °F - 48.2 °F 100% 29.90 in 4.0 mi North 3.5 mph - N/A   Overcast
6:38 AM 48.2 °F - 48.2 °F 100% 29.91 in 2.5 mi Calm Calm - N/A   Overcast
6:53 AM 48.9 °F - 48.9 °F 100% 29.93 in 3.0 mi Calm Calm - N/A   Overcast
7:21 AM 50.0 °F - 48.2 °F 94% 29.95 in 3.0 mi Calm Calm - N/A   Overcast
7:31 AM 50.0 °F - 48.2 °F 94% 29.95 in 3.0 mi Calm Calm - N/A   Overcast
7:53 AM 51.1 °F - 48.9 °F 92% 29.96 in 4.0 mi Variable 3.5 mph - N/A   Overcast
8:28 AM 51.8 °F - 48.2 °F 88% 29.95 in 8.0 mi North 5.8 mph - N/A   Overcast
8:53 AM 52.0 °F - 48.9 °F 89% 29.96 in 10.0 mi NNE 4.6 mph - N/A   Overcast
9:53 AM 52.0 °F - 48.0 °F 86% 29.98 in 10.0 mi NNE 9.2 mph - N/A   Overcast
10:34 AM 53.6 °F - 48.2 °F 82% 29.96 in 10.0 mi NNE 9.2 mph - N/A   Overcast
10:53 AM 55.9 °F - 48.9 °F 77% 29.97 in 10.0 mi NE 12.7 mph - N/A   Overcast
11:07 AM 55.4 °F - 48.2 °F 77% 29.97 in 10.0 mi NNE 10.4 mph - N/A   Mostly Cloudy
11:53 AM 59.0 °F - 48.9 °F 69% 29.97 in 10.0 mi NE 6.9 mph - N/A   Partly Cloudy
12:34 PM 62.6 °F - 48.2 °F 59% 29.98 in 10.0 mi NE 9.2 mph - N/A   Mostly Cloudy
1:03 PM 57.2 °F - 46.4 °F 67% 29.99 in 10.0 mi East 10.4 mph 19.6 mph N/A   Partly Cloudy
1:23 PM 55.4 °F - 48.2 °F 77% 29.99 in 10.0 mi ESE 11.5 mph - N/A   Mostly Cloudy
1:53 PM 55.9 °F - 46.9 °F 72% 30.00 in 10.0 mi ESE 15.0 mph 19.6 mph N/A   Scattered Clouds
2:53 PM 51.1 °F - 44.1 °F 77% 30.01 in - East 12.7 mph 21.9 mph N/A   Overcast
3:36 PM 48.2 °F - 42.8 °F 82% 30.00 in 10.0 mi East 10.4 mph 23.0 mph N/A   Overcast
3:53 PM 48.9 °F - 43.0 °F 80% 30.01 in 10.0 mi East 11.5 mph 18.4 mph N/A   Overcast
4:05 PM 48.2 °F - 42.8 °F 82% 30.01 in 10.0 mi East 10.4 mph 20.7 mph N/A   Overcast
4:53 PM 48.9 °F - 41.0 °F 74% 30.01 in 10.0 mi East 13.8 mph 20.7 mph N/A   Overcast
5:53 PM 46.9 °F - 41.0 °F 80% 30.03 in 10.0 mi East 13.8 mph 20.7 mph N/A   Overcast
6:53 PM 46.0 °F 41.9 °F 37.9 °F 73% 30.05 in 10.0 mi East 8.1 mph 16.1 mph N/A   Overcast
7:53 PM 46.0 °F 41.0 °F 37.9 °F 73% 30.06 in 10.0 mi ESE 10.4 mph 18.4 mph N/A   Overcast
8:53 PM 46.0 °F 40.2 °F 36.0 °F 68% 30.06 in 10.0 mi ESE 12.7 mph 23.0 mph N/A   Overcast
9:53 PM 46.0 °F 41.0 °F 36.0 °F 68% 30.08 in 10.0 mi East 10.4 mph - N/A   Overcast
10:53 PM 46.0 °F 40.6 °F 36.0 °F 68% 30.07 in 10.0 mi East 11.5 mph 17.3 mph N/A   Overcast
11:53 PM 46.0 °F 41.4 °F 36.0 °F 68% 30.07 in 10.0 mi East 9.2 mph 16.1 mph N/A   Overcast